EHI
0 0 0 0 0 0 0 0 0 0 0 0 0 0 0 0 0 0 0 0 0 4 18 40 59 66 64 62 61 58 54 46 34 25 22 18 14 13 13 13 11 6 3 2 1 0 0 0 0
0 0 0 0 0 0 0 0 0 0 0 0 0 0 0 0 0 0 0 0 0 4 17 37 56 65 63 60 59 57 53 45 36 28 23 17 15 14 13 12 10 6 3 2 1 0 0 0 0
0 0 0 0 0 0 0 0 0 0 0 0 0 0 0 0 0 0 0 0 0 3 15 35 55 65 62 57 56 54 51 44 38 31 23 17 16 14 12 10 9 6 4 2 1 0 0 0 0
0 0 0 0 0 0 0 0 0 0 0 0 0 0 0 0 0 0 0 0 0 3 13 33 54 63 60 54 51 49 46 41 36 29 21 17 16 14 12 10 7 6 5 3 1 0 0 0 0
0 0 0 0 0 0 0 0 0 0 0 0 0 0 0 0 0 0 0 0 1 4 12 28 49 58 53 48 45 44 41 37 31 25 19 17 16 14 12 9 7 6 5 3 2 0 0 0 0
0 0 0 0 0 0 0 0 0 0 0 0 0 0 0 0 0 0 0 0 1 5 11 21 36 45 44 43 44 43 39 32 26 22 19 18 17 14 11 9 7 6 4 3 1 0 0 0 0
0 0 0 0 0 0 0 0 0 0 0 0 0 0 0 0 0 0 0 0 1 4 7 12 21 28 32 35 38 39 34 27 23 22 21 18 15 12 10 9 7 6 4 2 1 0 0 0 0
0 0 0 0 0 0 0 0 0 0 0 0 0 0 0 0 0 0 0 0 0 2 4 6 11 16 21 24 26 28 26 22 20 20 17 13 10 9 9 8 7 5 3 1 0 0 0 0 0
0 0 0 0 0 0 0 0 0 0 0 0 0 0 0 0 0 0 0 0 0 1 4 4 7 12 16 17 18 18 17 16 15 14 11 7 5 6 6 6 5 4 2 1 0 0 0 0 0
0 0 0 0 0 0 0 0 0 0 0 0 0 0 0 0 0 0 0 0 0 2 4 5 7 13 18 19 19 18 16 12 10 8 5 4 4 5 5 4 3 2 1 0 0 0 0 0 0
0 0 0 0 0 0 0 0 0 0 0 0 0 0 0 0 0 0 0 0 1 3 5 6 8 14 19 20 23 24 20 15 10 6 4 4 6 7 5 3 2 1 0 0 0 0 0 0 0
0 0 0 0 0 0 0 0 0 0 0 0 0 0 0 0 0 0 0 0 1 3 5 5 6 10 15 20 23 24 21 17 13 8 6 7 8 8 6 4 2 1 0 0 0 0 0 0 0
0 0 0 0 0 0 0 0 0 0 0 0 0 0 0 0 0 0 0 0 1 2 4 4 4 6 12 17 20 20 19 18 15 11 9 8 8 7 6 4 2 0 0 0 0 0 0 0 0
0 0 0 0 0 0 0 0 0 0 0 0 0 0 0 0 0 0 0 0 0 1 2 2 2 4 9 14 15 16 17 16 14 11 8 7 5 5 5 3 1 0 0 0 0 0 0 0 0
0 0 0 0 0 0 0 0 0 0 0 0 0 0 0 0 0 0 0 0 0 0 0 0 1 3 7 10 11 13 14 13 12 9 6 4 4 4 3 1 0 0 0 0 0 0 0 0 0
0 0 0 0 0 0 0 0 0 0 0 0 0 0 0 0 0 0 0 0 0 0 0 0 0 2 5 6 7 9 9 10 9 7 4 3 3 2 1 0 0 0 0 0 0 0 0 0 0
0 0 0 0 0 0 0 0 0 0 0 0 0 0 0 0 0 0 0 0 0 0 0 0 0 1 3 3 4 5 6 7 7 5 3 3 3 1 0 0 0 0 0 0 0 0 0 0 0
0 0 0 0 0 0 0 0 0 0 0 0 0 0 0 0 0 0 0 0 0 0 0 0 0 1 1 1 1 2 4 5 4 3 3 3 2 1 0 0 0 0 0 0 0 0 0 0 0
0 0 0 0 0 0 0 0 0 0 0 0 0 0 0 0 0 0 0 0 0 0 0 0 0 0 0 0 0 1 3 4 3 2 3 3 2 1 0 0 0 0 0 0 0 0 0 0 0
0 0 0 0 0 0 0 0 0 0 0 0 0 0 0 0 0 0 0 0 0 0 0 0 0 0 0 0 1 1 3 3 2 2 3 3 2 1 0 0 0 0 0 0 0 0 0 0 0
0 0 0 0 0 0 0 0 0 0 0 0 0 0 0 0 0 0 0 0 0 0 0 0 0 0 0 1 2 2 3 3 2 2 2 2 1 0 0 0 0 0 0 0 0 0 0 0 0
0 0 0 0 0 0 0 0 0 0 0 0 0 0 0 0 0 0 0 0 0 0 0 0 0 0 0 1 2 2 3 3 3 2 2 1 0 0 0 0 0 0 0 0 0 0 0 0 0
0 0 0 0 0 0 0 0 0 0 0 0 0 0 0 0 0 0 0 0 0 0 0 0 0 0 0 0 1 2 3 3 3 3 2 1 0 0 0 0 0 0 0 0 0 0 0 0 0
0 0 0 0 0 0 0 0 0 0 0 0 0 0 0 0 0 0 0 0 0 0 0 0 0 0 0 0 1 2 3 3 3 3 2 1 0 0 0 0 0 0 0 0 0 0 0 0 0
0 0 0 0 0 0 0 0 0 0 0 0 0 0 0 0 0 0 0 0 0 0 0 0 0 0 0 0 1 2 3 3 3 3 3 1 0 0 0 0 0 0 0 0 0 0 0 0 0
0 0 0 0 0 0 0 0 0 0 0 0 0 0 0 0 0 0 0 0 0 0 0 0 0 0 0 0 0 1 2 2 2 3 3 2 1 0 0 0 0 0 0 0 0 0 0 0 0
0 0 0 0 0 0 0 0 0 0 0 0 0 0 0 0 0 0 0 0 0 0 0 0 0 0 0 0 0 0 1 1 1 1 2 2 1 0 0 0 0 0 0 0 0 0 0 0 0
0 0 0 0 0 0 0 0 0 0 0 0 0 0 0 0 0 0 0 0 0 0 0 0 0 0 0 0 0 0 0 0 0 0 1 1 0 0 0 0 0 0 0 0 0 0 0 0 0
0 0 0 0 0 0 0 0 0 0 0 0 0 0 0 0 0 0 0 0 0 0 0 0 0 0 0 0 0 0 0 0 0 0 0 0 0 0 0 0 0 0 0 0 0 0 0 0 0
0 0 0 0 0 0 0 0 0 0 0 0 0 0 0 0 0 0 0 0 0 0 0 0 0 0 0 0 0 0 0 0 0 0 0 0 0 0 0 0 0 0 0 0 0 0 0 0 0
Wind_Speed
6 4 4 4 7 11 19 16 12 9 8 8 7 8 9 12 9 3 5 4 6 12 17 22 21 22 21 21 20 20 20 20 19 19 19 19 19 18 17 17 17 16 16 16 16 16 16 16 16
5 3 5 6 11 17 17 17 18 16 9 4 8 10 11 13 10 5 1 3 7 12 16 20 21 21 21 21 21 21 21 20 20 19 19 19 19 18 18 18 17 16 16 16 16 16 16 16 15
4 5 6 7 15 20 16 7 13 15 12 9 8 9 10 8 6 4 3 3 7 11 15 18 20 22 22 21 21 21 21 20 20 20 19 19 19 19 18 18 17 17 16 16 16 16 16 16 15
3 5 7 13 25 23 20 11 7 9 10 12 11 9 7 5 4 3 2 4 7 11 14 18 20 22 21 21 21 21 21 21 21 20 20 19 19 19 19 18 17 17 17 16 16 16 16 15 15
4 6 11 19 28 23 18 15 11 11 11 10 13 14 11 4 3 4 3 5 8 10 13 17 20 22 21 21 21 21 21 21 21 20 20 20 19 19 19 18 17 17 17 16 16 16 16 15 14
5 7 13 22 25 22 20 16 15 17 16 12 12 16 15 6 4 4 3 5 7 9 12 16 19 20 21 21 21 21 21 21 21 20 20 20 20 20 19 18 18 17 17 16 16 16 15 15 14
8 10 19 24 23 22 18 16 18 19 19 17 13 15 13 9 5 4 4 5 7 9 11 13 18 19 19 19 20 20 20 21 20 20 20 19 19 20 20 19 18 17 17 16 16 16 15 15 14
6 8 19 21 23 22 16 15 17 19 20 16 15 16 13 7 4 4 4 5 7 8 10 13 16 18 19 19 18 19 19 20 19 19 18 17 18 19 19 18 17 17 17 16 16 16 15 14 13
6 11 19 20 19 18 14 16 17 17 19 18 17 18 14 6 6 6 6 7 8 9 10 12 14 16 17 17 18 18 18 18 18 17 17 17 15 15 14 15 16 17 17 16 16 16 15 14 12
8 14 21 17 17 17 16 16 17 17 20 20 19 16 12 10 10 10 10 11 11 12 13 12 13 15 15 14 14 14 14 15 15 15 17 13 12 11 12 14 14 15 15 15 15 15 14 10 8
9 15 16 17 17 17 18 19 18 20 23 21 19 17 13 14 14 14 14 14 14 13 13 13 13 13 14 11 11 9 9 10 13 16 16 12 11 9 10 9 10 11 12 11 12 11 8 7 6
14 16 18 18 18 18 19 20 21 22 23 20 19 17 15 17 17 17 16 15 14 14 14 13 14 12 13 12 11 10 9 9 9 13 16 12 9 9 9 8 9 9 7 8 8 6 8 8 8
17 18 18 18 17 19 20 22 23 23 21 20 19 18 17 18 18 17 16 16 15 15 15 14 13 13 12 12 10 11 11 11 11 11 13 14 11 11 10 8 8 9 8 8 8 8 9 8 8
12 16 19 20 20 19 20 22 22 23 18 19 19 18 18 18 18 17 16 17 16 16 15 14 14 14 13 11 11 11 10 11 11 11 13 15 11 11 10 10 9 9 8 8 8 9 8 7 6
13 17 19 18 17 15 16 20 21 19 16 18 19 19 18 18 18 18 17 16 16 16 15 15 15 14 14 13 13 11 10 11 11 11 14 14 13 13 11 10 9 9 9 9 8 9 7 6 6
11 12 13 12 12 11 12 21 19 16 16 19 19 19 17 18 19 18 17 16 16 15 15 14 13 14 14 13 12 10 11 12 11 11 12 15 15 15 12 10 9 10 9 8 8 8 7 7 7
6 10 16 17 9 10 12 20 19 15 16 19 19 18 17 17 18 17 17 16 15 16 15 14 14 15 14 13 11 11 12 12 11 11 11 13 15 15 12 10 10 11 9 9 8 8 8 8 7
12 16 18 19 13 14 18 21 19 17 16 18 18 17 17 17 16 15 15 14 14 15 15 15 14 14 14 11 9 9 11 11 11 11 12 15 14 15 13 10 12 12 9 9 9 10 8 7 6
15 17 21 21 17 15 18 21 20 17 15 15 16 16 15 16 14 13 14 14 13 14 15 15 15 14 13 10 10 11 11 11 11 11 15 16 15 15 13 10 12 12 10 11 12 10 10 8 7
14 16 19 17 12 14 17 21 19 14 14 13 14 14 14 14 13 12 13 13 13 14 15 15 15 15 15 12 11 10 11 10 11 11 14 16 16 16 13 14 12 12 11 12 12 11 8 7 7
13 14 16 18 18 11 11 14 11 8 9 10 11 12 12 12 11 11 12 12 12 13 15 14 15 16 16 15 10 10 9 8 9 12 12 15 16 16 15 15 14 13 12 11 13 13 12 9 8
12 10 14 16 13 8 6 9 10 8 8 8 8 8 9 10 10 9 9 10 12 12 12 14 15 15 16 16 14 16 13 12 11 12 12 14 16 16 16 16 15 14 12 13 13 13 10 11 9
10 14 15 15 12 10 8 8 8 6 8 9 9 9 9 9 9 8 8 8 9 9 9 11 13 14 15 16 17 18 15 12 10 12 14 14 14 16 16 16 15 14 12 14 14 13 12 10 9
11 12 11 8 6 6 6 6 7 5 8 10 9 9 9 9 8 7 6 6 6 6 7 9 12 13 15 17 17 19 19 16 14 15 15 13 11 13 17 16 15 15 13 14 14 13 14 11 11
8 8 5 3 3 5 4 6 5 7 8 9 10 10 10 8 7 6 5 5 6 5 6 8 12 13 15 16 17 19 19 18 18 16 16 15 12 12 16 16 16 15 14 14 14 13 14 14 13
8 6 5 6 6 8 6 6 3 6 9 9 10 10 11 10 8 7 6 5 6 6 6 8 10 12 14 15 16 17 18 14 13 16 14 15 13 13 16 17 16 16 16 15 14 12 13 12 13
6 4 5 7 8 8 6 5 4 7 11 12 13 12 13 12 10 9 8 6 5 6 7 7 10 11 13 15 15 16 17 16 15 16 15 13 13 13 17 18 17 17 16 16 15 12 14 12 12
6 6 4 4 6 7 7 6 5 10 12 13 14 13 14 14 12 11 9 7 6 5 6 7 8 11 12 14 13 13 16 16 15 15 16 15 16 15 17 18 18 17 16 16 15 13 13 13 12
4 3 4 5 5 7 8 5 4 8 11 13 13 14 14 14 13 12 10 9 7 6 5 5 7 8 10 11 12 14 15 16 16 15 16 15 15 16 17 17 17 17 17 16 15 14 14 15 13
6 5 4 5 6 7 8 7 3 7 9 11 13 14 14 14 13 11 10 9 8 6 5 5 6 7 9 10 11 13 14 15 15 15 15 15 16 16 17 17 17 17 17 16 16 16 15 15 14
Wind_Direction
302 252 210 215 225 232 239 234 230 229 226 228 221 219 229 228 220 240 55 150 167 166 170 170 173 171 168 165 161 158 156 155 154 152 148 144 141 139 137 133 131 130 127 123 119 115 111 108 106
299 220 204 218 233 234 239 236 232 232 234 220 220 232 239 242 247 297 40 152 176 170 172 174 172 171 169 166 163 160 158 157 156 153 149 146 145 143 140 137 134 131 128 123 119 116 113 111 109
264 217 216 220 230 235 240 225 241 239 237 234 231 236 243 245 237 257 38 163 179 175 176 172 171 172 170 168 165 162 160 158 156 154 151 149 147 145 141 138 134 131 127 124 122 120 117 114 113
230 203 226 235 237 236 247 250 246 244 236 233 242 244 233 247 285 325 352 188 186 180 179 172 172 173 171 169 166 164 162 160 158 155 153 152 149 146 141 136 133 130 129 128 126 123 120 117 116
232 223 228 236 243 244 246 253 257 252 247 236 236 249 249 234 279 304 268 202 195 185 182 175 174 174 173 170 168 166 164 162 159 157 156 154 150 146 141 137 135 134 133 132 130 127 124 121 118
220 224 235 242 246 246 245 246 252 256 255 253 252 257 258 252 269 291 255 217 203 190 185 178 175 176 174 172 170 168 165 163 160 159 157 153 149 146 142 140 139 138 137 135 134 130 127 124 120
234 234 245 252 258 254 250 247 248 253 254 252 259 265 263 256 271 279 245 219 201 192 188 183 181 179 176 174 172 169 166 163 161 159 156 152 149 147 144 142 142 141 140 139 138 134 131 126 121
249 248 252 251 256 259 260 255 252 255 260 266 263 258 261 278 295 267 245 226 208 197 193 189 186 184 181 178 174 169 166 163 160 156 152 147 146 146 144 145 144 144 143 142 140 136 132 126 122
244 240 247 249 257 264 267 265 260 263 264 262 259 265 280 292 273 254 240 227 215 204 198 195 191 187 184 180 173 169 164 161 158 153 147 149 152 149 149 146 146 146 145 143 140 136 130 126 122
230 246 252 261 269 275 276 273 275 268 259 258 258 261 271 263 249 242 232 224 215 208 201 197 194 191 185 178 173 174 171 166 167 163 160 161 156 152 150 138 143 144 144 143 139 135 136 141 135
241 252 269 272 275 279 277 273 271 268 263 260 262 264 263 260 253 244 237 229 220 212 207 202 196 192 186 179 175 173 171 170 170 167 165 159 152 149 150 149 147 147 149 146 141 148 151 149 138
258 263 268 272 275 276 274 274 269 264 269 275 273 266 260 254 250 244 240 235 227 218 213 208 198 192 189 183 177 174 170 169 167 167 164 159 155 157 157 158 157 156 156 151 155 157 152 148 148
259 267 273 273 272 271 274 269 269 268 271 275 272 264 253 252 251 248 244 239 232 223 215 210 202 195 191 185 180 177 174 171 167 167 168 163 159 160 159 159 159 160 156 157 157 159 154 153 151
274 278 279 276 270 268 269 272 269 264 268 271 267 260 253 250 248 247 243 238 233 226 218 212 206 199 192 188 182 179 175 170 167 168 169 167 163 162 162 161 162 161 161 161 162 160 157 154 156
281 283 280 270 267 267 274 269 261 264 267 267 267 263 255 249 247 243 240 239 234 229 221 215 208 201 194 189 186 178 173 171 169 169 171 171 167 164 165 164 164 163 162 163 163 158 160 155 158
274 275 278 279 280 276 263 265 270 271 270 272 271 266 259 250 245 243 240 240 234 229 222 215 210 202 194 187 186 178 174 173 171 170 171 173 170 168 167 165 166 163 163 166 164 164 163 162 166
258 284 292 294 279 278 265 272 279 277 270 270 270 269 261 255 249 242 239 237 233 226 219 212 209 204 195 186 183 180 174 175 172 172 172 174 173 171 170 169 166 166 168 170 168 171 170 167 167
299 298 294 291 292 288 279 277 282 280 272 270 269 269 264 255 249 242 238 235 231 225 218 211 207 203 192 183 181 177 175 177 174 175 175 175 175 175 173 171 169 169 171 173 175 172 172 169 163
292 289 289 292 298 290 281 282 283 284 275 271 269 268 265 259 252 244 240 235 229 223 218 211 206 201 190 180 179 177 178 178 177 178 178 177 176 177 177 172 173 176 178 179 178 172 169 166 164
289 291 292 298 303 294 284 284 284 277 271 266 268 269 270 270 258 245 238 232 226 221 218 211 206 201 195 186 183 180 177 180 177 176 180 180 178 179 180 178 177 179 180 181 179 175 171 165 179
293 286 296 302 308 289 284 283 282 287 278 273 270 271 272 271 268 252 241 232 224 220 217 212 205 201 198 188 182 176 169 173 178 180 182 184 182 182 182 183 181 181 183 183 182 181 181 174 182
298 300 297 298 301 297 295 293 297 306 308 312 304 292 283 278 272 261 250 240 226 224 220 213 205 201 197 190 188 181 180 182 186 182 181 182 185 185 185 185 186 184 186 185 186 187 188 179 182
295 304 294 288 284 282 270 265 287 306 309 317 319 316 305 293 280 267 253 248 234 227 225 214 205 203 197 194 193 188 188 186 183 181 180 182 185 188 188 186 188 188 188 189 187 187 190 189 191
303 300 288 268 260 264 279 271 292 328 327 327 328 327 324 315 298 279 266 259 245 231 231 220 205 206 200 196 198 195 190 184 183 185 183 183 184 188 190 188 190 190 190 191 190 190 194 195 197
330 322 311 296 258 273 302 277 291 346 345 336 337 339 337 333 325 308 294 275 261 242 232 223 208 207 202 198 201 199 194 188 188 189 188 185 185 188 191 189 192 192 193 192 190 191 196 199 200
318 316 312 307 302 305 295 272 314 358 352 347 345 344 346 346 341 331 318 299 275 254 237 230 216 211 203 202 203 200 196 192 192 194 191 189 189 190 189 191 194 194 192 191 192 193 197 201 203
307 307 295 283 284 276 273 280 292 348 352 353 348 347 348 347 343 336 326 317 299 273 251 240 228 218 208 205 204 201 198 195 193 195 194 192 192 188 189 191 193 195 193 192 191 197 197 200 205
272 303 296 290 300 291 288 286 321 349 349 348 348 347 345 345 341 332 328 320 310 296 271 249 240 225 212 208 206 203 200 197 195 195 195 194 192 187 188 191 193 194 193 193 194 197 199 200 204
288 284 288 284 288 294 295 299 5 340 339 339 339 338 338 339 337 331 326 319 308 311 299 272 250 233 218 212 209 207 202 198 197 199 198 195 193 189 189 190 191 192 194 193 194 198 196 201 201
265 271 277 287 285 273 281 284 339 328 332 332 331 334 333 334 335 331 329 326 320 315 308 291 269 238 223 216 212 210 204 198 196 199 199 197 194 191 189 188 191 192 193 194 196 198 197 199 201